Location: Lake Almanor
(40.2485°N, 121.1442°W)
Time: 02:19:14
(UTC-08:00)

STARLINK-1107 - Pass Details

Date: 28 January 2020
Orbit: 345 x 354 km, 53.0° (Epoch: 18 February)

Event Time Altitude Azimuth Distance (km) Brightness Sun altitude
Rises 18:35:26 0° 319° (NW) 2,170 7.1 -14.9°
Reaches altitude 10° 18:37:58 10° 342° (NNW) 1,324 5.7 -15.4°
Enters shadow 18:39:22 16° 10° (N) 1,046 4.8 -15.6°
